Regional Weather Roundup
Issued by NWS

Home | Current Version | Previous Version | Text Only | Print | Product List | Glossary Off
Versions: 1 2 3 4 5 6 7 8 9 10 11 12 13 14 15 16 17 18 19 20 21 22 23 24 25 26 27 28 29 30 31 32 33 34 35 36 37 38 39 40 41 42 43 44 45 46 47 48 49 50

000
ASUS43 KMKX 170611
RWRWI

WISCONSIN REGIONAL WEATHER ROUNDUP
NATIONAL WEATHER SERVICE MILWAUKEE/SULLIVAN WI
100 AM CDT THU AUG 17 2017

NOTE: "FAIR" INDICATES FEW OR NO CLOUDS BELOW 12,000 FEET WITH NO
SIGNIFICANT WEATHER AND/OR OBSTRUCTIONS TO VISIBILITY.

WIZ001-002-006>008-014>016-023>028-170700-
NORTHWEST WISCONSIN

CITY           SKY/WX    TMP DP  RH WIND       PRES   REMARKS
SUPERIOR ARPT  LGT RAIN  62  61  99 NE13G25   29.74F
6HR MIN TEMP:  61; 6HR MAX TEMP:  63; 6HR PCP:  0.26;

ASHLAND        LGT RAIN  65  62  90 NE8       29.75F
6HR MIN TEMP:  65; 6HR MAX TEMP:  67; 6HR PCP:  0.01;

HAYWARD        RAIN      65  63  93 E7G23     29.69F FOG
6HR MIN TEMP:  65; 6HR MAX TEMP:  73; 6HR PCP:  0.30;

SIREN          RAIN      66  65  96 E8        29.65F
6HR MIN TEMP:  66; 6HR MAX TEMP:  73; 6HR PCP:  0.69;

CUMBERLAND     CLOUDY    64  63  94 SE13      29.65F
RICE LAKE      CLOUDY    66  65  94 E12G18    29.66F
6HR MIN TEMP:  66; 6HR MAX TEMP:  74; 6HR PCP:  0.93;

CHETEK         CLOUDY    67  66  97 E12       29.66F
6HR MIN TEMP:  67; 6HR MAX TEMP:  74; 6HR PCP:  1.13;

LADYSMITH      LGT RAIN  65  64  97 E10G16    29.71F
6HR MIN TEMP:  65; 6HR MAX TEMP:  73; 6HR PCP:  0.69;

EAU CLAIRE     CLOUDY    70  67  90 E13       29.63F
6HR MIN TEMP:  69; 6HR MAX TEMP:  76; 6HR PCP:  1.18;

MENOMONIE      CLOUDY    69  69  99 SE7       29.63F
6HR MIN TEMP:  68; 6HR MAX TEMP:  76; 6HR PCP:  1.60;

NEW RICHMOND   LGT RAIN  68  67  98 E6        29.60F
6HR MIN TEMP:  67; 6HR MAX TEMP:  74; 6HR PCP:  0.51;

OSCEOLA        CLOUDY    69  69 100 E8G18     29.61F
6HR MIN TEMP:  68; 6HR MAX TEMP:  75; 6HR PCP:  0.47;

$$

WIZ003>005-009-010-017-018-170700-
NORTH CENTRAL WISCONSIN

CITY           SKY/WX    TMP DP  RH WIND       PRES   REMARKS
MANITOWISH WTR LGT RAIN  64  60  87 E10       29.78F
6HR MIN TEMP:  64; 6HR MAX TEMP:  70;

ARBOR VITAE    MOCLDY    64  59  81 E8        29.78F
6HR MIN TEMP:  64; 6HR MAX TEMP:  72;

WOODRUFF       MOCLDY    64  59  81 E8        29.78F
6HR MIN TEMP:  64; 6HR MAX TEMP:  72;

RHINELANDER    CLOUDY    63  59  87 E9        29.80F
6HR MIN TEMP:  63; 6HR MAX TEMP:  70; 6HR PCP: TRACE;

EAGLE RIVER    CLOUDY    63  54  73 E12       29.81F
6HR MIN TEMP:  63; 6HR MAX TEMP:  69;

LAND O LAKES   CLOUDY    63  56  77 SE9       29.84F
6HR MIN TEMP:  63; 6HR MAX TEMP:  70;

PHILLIPS       RAIN      63  62  98 E6        29.77R
6HR MIN TEMP:  63; 6HR MAX TEMP:  72; 6HR PCP:  0.06;

TOMAHAWK         N/A     64  58  80 E7        29.77F
6HR MIN TEMP:  64; 6HR MAX TEMP:  69;

MEDFORD        RAIN      63  61  95 E8G16     29.74S
6HR MIN TEMP:  63; 6HR MAX TEMP:  70; 6HR PCP:  0.15;

MERRILL        CLOUDY    64  61  88 E10G16    29.76F
$$

WIZ029-030-035-036-043>047-170700-
CENTRAL WISCONSIN

CITY           SKY/WX    TMP DP  RH WIND       PRES   REMARKS
WAUSAU         LGT RAIN  63  62  97 E15       29.75F FOG
6HR MIN TEMP:  63; 6HR MAX TEMP:  71; 6HR PCP:  0.05;

MOSINEE        RAIN      63  63 100 E13G20    29.76F
MARSHFIELD     CLOUDY    65  63  93 E13       29.72F
6HR MIN TEMP:  65; 6HR MAX TEMP:  72; 6HR PCP:  0.14;

STEVENS POINT  CLOUDY    63  63 100 E12       29.76F
6HR MIN TEMP:  62; 6HR MAX TEMP:  71;

WAUPACA        CLOUDY    67  67  97 E8        29.76F
6HR MIN TEMP:  67; 6HR MAX TEMP:  76; 6HR PCP:  0.35;

WAUTOMA        NOT AVBL
WISC RAPIDS    CLOUDY    66  65  96 SE8       29.74F
6HR MIN TEMP:  65; 6HR MAX TEMP:  75; 6HR PCP:  0.09;

CAMP DOUGLAS   DRIZZLE   70  70 100 SE7       29.69F
6HR MIN TEMP:  70; 6HR MAX TEMP:  76; 6HR PCP:  0.35;

$$

WIZ011>013-019>022-031-037>040-048>050-170700-
NORTHEAST WISCONSIN

CITY           SKY/WX    TMP DP  RH WIND       PRES   REMARKS
ANTIGO         RAIN      61  60  96 E9        29.81F
6HR MIN TEMP:  61; 6HR MAX TEMP:  68; 6HR PCP:  0.02;

SHAWANO        RAIN      67  64  89 E10       29.78F
6HR MIN TEMP:  67; 6HR MAX TEMP:  73; 6HR PCP:  0.09;

OCONTO         CLOUDY    69  63  81 E5        29.80F
6HR MIN TEMP:  67; 6HR MAX TEMP:  69;

STURGEON BAY   NOT AVBL
GREEN BAY      HVY RAIN  66  66 100 NE8       29.78F FOG
6HR MIN TEMP:  66; 6HR MAX TEMP:  71; 6HR PCP:  0.33;

MANITOWOC      LGT RAIN  70  68  94 SE9       29.80F
APPLETON       DRIZZLE   68  68 100 SE8       29.76F
CLINTONVILLE   LGT RAIN  64  63  94 E9        29.78F
OSHKOSH        LGT RAIN  69  67  93 SE10      29.76F
$$

WIZ032>034-041-042-053>061-170700-
SOUTHWEST WISCONSIN

CITY           SKY/WX    TMP DP  RH WIND       PRES   REMARKS
LA CROSSE      CLOUDY    77  73  87 S15       29.64S
6HR MIN TEMP:  75; 6HR MAX TEMP:  78; 6HR PCP:  0.19;

SPARTA         LGT RAIN  71  69  95 S10       29.67F
6HR MIN TEMP:  69; 6HR MAX TEMP:  72; 6HR PCP:  0.69;

VIROQUA        CLOUDY    73  73 100 S8        29.70F
6HR MIN TEMP:  72; 6HR MAX TEMP:  73; 6HR PCP:  0.09;

BOSCOBEL       CLOUDY    77  72  84 S8        29.69F
PRAIRIE DU CHI CLOUDY    75  71  86 S7        29.68F
6HR MIN TEMP:  73; 6HR MAX TEMP:  76;

PLATTEVILLE    CLOUDY    74  74 100 S9        29.73F
6HR MIN TEMP:  73; 6HR MAX TEMP:  74;

$$

WIZ056-057-062-063-064-067-068-170700-
SOUTH CENTRAL WISCONSIN

CITY           SKY/WX    TMP DP  RH WIND       PRES   REMARKS
REEDSBURG      CLOUDY    73  73 100 S8        29.72S
6HR MIN TEMP:  70; 6HR MAX TEMP:  73; 6HR PCP:  0.17;

BARABOO/DELLS  LGT RAIN  72  70  94 S10       29.72F
6HR MIN TEMP:  70; 6HR MAX TEMP:  73; 6HR PCP:  0.60;

LONE ROCK      CLOUDY    74  74 100 SE5       29.71F
MINERAL POINT  CLOUDY    73  73 100 S7        29.74F
MADISON        NOT AVBL
MIDDLETON      CLOUDY    75  75 100 S8        29.75F
6HR MIN TEMP:  73; 6HR MAX TEMP:  75; 6HR PCP:  0.98;

WATERTOWN      CLOUDY    72  72 100 S7        29.76F
6HR MIN TEMP:  69; 6HR MAX TEMP:  72; 6HR PCP:  1.19;

MONROE         CLOUDY    72  72 100 S10       29.76F
JANESVILLE     CLOUDY    75  75 100 S8        29.76F
$$

WIZ051-052-058>065-066-070>072-170700-
SOUTHEAST WISCONSIN

CITY           SKY/WX    TMP DP  RH WIND       PRES   REMARKS
MILWAUKEE      NOT AVBL
WAUKESHA       CLOUDY    70  70 100 S7        29.79F FOG
MILWAUKEE/TIMM CLOUDY    72  68  88 SE6       29.78F
RACINE         LGT RAIN  74  73  97 S9        29.80F
KENOSHA        NOT AVBL
FOND DU LAC    HVY RAIN  70  67  90 S9        29.77F FOG
SHEBOYGAN      NOT AVBL
WEST BEND      CLOUDY    70  70 100 CALM      29.78F
JUNEAU         CLOUDY    71  70  97 S6        29.77F FOG
6HR MIN TEMP:  67; 6HR MAX TEMP:  71; 6HR PCP:  0.01;

$$

LSZ147-162-170700-
LAKE SUPERIOR

STATION/POSITION TIME  TEMP    WIND        PRES    WAVE
                       AIR SEA DIR/SP/G            HT/PER
                 (UTC) (F)     (DEG/KT/KT) (MB)    (FT/S)
W MID LAKE BUOY  0550   62 60   80/ 14/ 16 1008.9F   3/ 4
DEVILS ISLAND    0600   62      60/ 15/ 18 1008.4F
PORT WING        0340   61      50/ 10/ 12 1009.5
SAXON HARBOR     0530   68      40/  3/  5 1007.1F
$$

LMZ867-665-643>646-170700-
LAKE MICHIGAN

STATION/POSITION TIME  TEMP    WIND        PRES    WAVE
                       AIR SEA DIR/SP/G            HT/PER
                 (UTC) (F)     (DEG/KT/KT) (MB)    (FT/S)
S GREEN BAY BUOY 0600   71 72  120/ 14/ 16 1008.8F
N MID LAKE BUOY  0550   70 68  120/ 14/ 17 1010.8F   1/ 4
NORTHPORT PIER   0540   70     110/  9/ 11 1010.2F
KEWAUNEE LAKESHO 0542   71     160/  9/ 11 1009.2F
SHEBOYGAN LAKESH 0600   70     100/ 13/ 14 1007.7F
PORT WASHINGTON  0530   73     140/  8/ 12 1009.5F
ATWATER BUOY     0539   73 72  150/ 12/ 16 1008.2F
MILWAUKEE LAKESH 0550   73     160/  7/  8   N/A
S MID LAKE BUOY  0550   74 72  230/ 14/ 23 1010.0R   1/ 3
KENOSHA   LAKESH 0600   74     180/  7/ 10 1008.1
$$

TC  - TEMPERATURE IN CELSIUS
VSB - VISIBILITY IN STATUTE MILES
WCI - WIND CHILL INDEX
HX  - HEAT INDEX




USA.gov is the U.S. government's official web portal to all federal, state and local government web resources and services.